Regional Weather Roundup
Issued by NWS Wakefield, VA

Home | Current Version | Previous Version | Text Only | Print | Product List | Glossary Off
Versions: 1 2 3 4 5 6 7 8 9 10 11 12 13 14 15 16 17 18 19 20 21 22 23 24 25 26 27

000
ASUS41 KAKQ 252015
RWRAKQ

REGIONAL WEATHER ROUNDUP
NATIONAL WEATHER SERVICE WAKEFIELD VA
400 PM EDT WED MAY 25 2016

Note: "fair" indicates few or no clouds below 12,000 feet with no
significant weather and/or obstructions to visibility. * = Denotes
station may not report precipitation (e.g., rain,snow,etc.),
thunder or fog.

VAZ042-051-052>054-056-252100-
NORTHERN VIRGINIA

CITY           SKY/WX    TMP DP  RH WIND       PRES   REMARKS
WASH NATIONAL  PTSUNNY   85  54  34 SW8       30.12F
DULLES         FAIR      84  51  31 SW8       30.13F
FORT BELVOIR   FAIR      85  51  31 S7        30.12F
QUANTICO       PTSUNNY   82  61  48 S7        30.13F
FREDERICKSBRG* FAIR      86  55  35 SW7       30.12F
STAFFORD*      FAIR      85  51  30 W3        30.17S
WARRENTON      FAIR      86  44  22 SW6       30.13F
CULPEPER*      FAIR      85  54  34 SW8       30.14S
MANASSAS*      SUNNY     84  52  32 SW9       30.13F
LEESBURG*      FAIR      86  54  32 CALM      30.14S
WINCHESTER     FAIR      84  52  32 SW3       30.14S
FRONT ROYAL*   FAIR      84  52  32 CALM      30.13F
LURAY*         FAIR      82  52  34 S6        30.16S
$$

VAZ048-049-060>072-079>083-252100-
CENTRAL AND SOUTH CENTRAL VIRGINIA

CITY           SKY/WX    TMP DP  RH WIND       PRES   REMARKS
RICHMOND       PTSUNNY   85  52  32 W10       30.14F
CHESTERFIELD*  FAIR      88  52  29 W8        30.16F
PETERSBURG*    FAIR      88  52  29 SW9       30.15F
HANOVER        FAIR      85  52  32 W14       30.15F
TAPPAHANNOCK*  FAIR      87  50  27 SW6       30.14F
QUINTON*       FAIR      85  54  35 SW6       30.13F
CHARLOTTSVILLE FAIR      85  55  35 S7        30.15S
GORDONSVILLE*  FAIR      85  53  33 SW5       30.14S
ORANGE*        FAIR      86  50  28 SW7       30.16S
LOUISA*        FAIR      88  55  33 W6        30.14F
BUMPASS*       FAIR      84  54  35 SW9       30.15S
FARMVILLE*     FAIR      86  51  29 SW6       30.14F
CREWE*         FAIR      85  55  34 W5        30.16S
FORT PICKETT*  NOT AVBL
CHASE CITY*    FAIR      84  49  29 SW3       30.16F
CLARKSVILLE*   MOCLDY    86  59  39 SW8       30.16F
SOUTH HILL*    FAIR      84  60  43 SW9       30.22S
LAWRENCEVILLE* FAIR      85  54  34 CALM      30.15F
EMPORIA*       FAIR      86  54  32 S9        30.17S
$$

VAZ088>098-252100-
SOUTHEAST VIRGINIA

CITY           SKY/WX    TMP DP  RH WIND       PRES   REMARKS
NORFOLK        FAIR      83  57  41 E9        30.14F
VIRGINIA BEACH PTSUNNY   85  58  39 E9        30.14S
NORFOLK NAVAL  FAIR      86  56  35 NE7       30.15F
WEST POINT*    FAIR      86  49  28 W3        30.15F
SALUDA*        FAIR      83  58  43 E6        30.13F
NEWPORT NEWS   FAIR      86  56  35 W3        30.14F
LANGLEY AFB    MOSUNNY   86  58  38 W10       30.14F
FORT EUSTIS    FAIR      85  57  37 VRB3      30.12F
WILLIAMSBURG*  FAIR      90  57  33 W5        30.14F
HR EXEC AP*    FAIR      88  57  35 W6        30.16S
FRANKLIN*      FAIR      86  54  33 W9        30.14F
US460-WAKEFLD  FAIR      87  53  31 W3        30.14F
$$

VAZ020-022-025-037-045-252100-
WEST CENTRAL AND SOUTHWEST VIRGINIA

CITY           SKY/WX    TMP DP  RH WIND       PRES   REMARKS
STAUNTON*      FAIR      82  54  38 SE6       30.18F
WAYNESBORO*    FAIR      82  50  33 SW7       30.19S
HOT SPRINGS VA FAIR      75  40  28 SW9       30.28F
LYNCHBURG      FAIR      82  51  34 VRB6      30.18F
DANVILLE       FAIR      84  53  34 W9        30.16F
SOUTH BOSTON*  FAIR      84  52  33 SW6       30.16S
MARTINSVILLE   FAIR      83  52  35 SE5       30.20F
ROANOKE        FAIR      84  52  33 SW9       30.18F
BLACKSBURG     FAIR      81  55  41 SW5       30.25F
DUBLIN*        CLOUDY    82  54  37 SW6       30.24S
MARION*        FAIR      80  55  42 W12       30.27F
HILLSVILLE*    PTSUNNY   76  55  47 SW7       30.25F
RICHLANDS*     FAIR      78  52  40 W7        30.25F
WISE*          FAIR      79  45  29 SW13      30.26F
ABINGDON*      PTSUNNY   81  56  41 N3        30.23F
$$

MDZ021>025-VAZ099-100-252100-
SOUTHERN MARYLAND AND THE DELMARVA PENINSULA

CITY           SKY/WX    TMP DP  RH WIND       PRES   REMARKS
PATUXENT RIVER MOSUNNY   85  54  34 W12G18    30.12F
BAY BRIDGE APT MOSUNNY   86  52  30 S9        30.11S
LEONARDTOWN    SUNNY     82  50  32 SW7       30.14F
DOVER          CLOUDY    85  56  38 SW10      30.10R
GEORGETOWN     PTSUNNY   86  49  27 SW10      30.12F
EASTON         SUNNY     84  59  42 SW8       30.15F
CAMBRIDGE      MOSUNNY   82  52  34 W7        30.12F
SALISBURY      CLOUDY    84  52  33 SW14      30.12S
OCEAN CITY     MOSUNNY   84  52  33 W10       30.11F
WALLOPS ISLAND FAIR      82  51  34 W8        30.14F
ACCOMACK*      FAIR      86  50  28 W5        30.13F
$$

NCZ012>017-030>032-252100-
NORTH CENTRAL AND EASTERN NORTH CAROLINA

CITY           SKY/WX    TMP DP  RH WIND       PRES   REMARKS
ROANOKE RAPIDS NOT AVBL
RALEIGH        MOSUNNY   86  58  38 W9        30.17F
ELIZABETH CITY MOSUNNY   86  58  38 SW14      30.15F
AHOSKIE*       SUNNY     85  56  37 CALM      30.15F
EDENTON*       SUNNY     87  56  34 SW7       30.16F
CURRITUCK*     MOSUNNY   88  53  29 SW7       30.15F
KILL DEVIL HLS SUNNY     89  57  34 CALM      30.16F
MANTEO         SUNNY     81  65  57 S13       30.17F
CAPE HATTERAS  SUNNY     77  67  71 SW8       30.20F
TARBORO*       MOCLDY    87  56  34 S7        30.16F
GOLDSBORO      PTSUNNY   87  54  31 SW12      30.16F
WASHINGTON     SUNNY     86  57  36 NW5       30.16F
GREENVILLE     MOSUNNY   88  55  33 SW5       30.18F
NEW BERN       MOSUNNY   87  58  37 S10       30.18F
WILMINGTON     SUNNY     85  58  39 S10       30.19S
$$

VAZ048-252100-
ELSEWHERE

CITY           SKY/WX    TMP DP  RH WIND       PRES   REMARKS
HARRISBURG PA  MOSUNNY   86  49  27 NW9       30.09S
BALTIMORE      PTSUNNY   83  52  34 W9        30.10F
ANNAPOLIS      MOSUNNY   81  55  40 S13       30.11S
ANDREWS AFB    FAIR      84  52  32 VRB7      30.12S
PHILADELPHIA   PTSUNNY   88  38  17 W14G22    30.09R
HENDERSON NC   MOSUNNY   82  56  40 S10       30.17F
GREENSBORO     PTSUNNY   84  48  28 VRB5      30.18F
ROCKY MOUNT    MOSUNNY   87  56  34 SW8       30.16F
$$

VAZ100-252100-
MARINE

STATION/POSITION TIME  TEMP    WIND        PRES    WAVE   SWELL
                       AIR SEA DIR/SP/G            HT/PER HT/PER
                 (UTC) (F)     (DEG/KT/KT) (MB)    (FT/S) (FT/S)
BRANDYWINE LGT   1900   75     190/ 12/ 14 1019.8F
CAPE MAY NJ      1900   78 64  190/  5/  9 1019.6F
LEWES DE         1900   81 61   70/  4/  5 1019.7F
15NM E FENWICK I 1950   64 59              1020.1F   2/ 9
OCEAN-CITY-INLET 1900   70 60  200/  5/  7 1020.5F
WACHAPREAGUE VA  1900   85 75  280/  4/ 10 1020.6F
THOMAS POINT MD  2000   74 64  180/ 13/ 14 1020.8F
GOOSES REEF MD   1900   75 69  180/  4/  6 1021.2F   0
COVE POINT MD    1900   80     320/  4/  9 1021.0F
SOLOMONS ISLAND  1900   83 64  260/  6/ 11   N/A
BISHOPS HEAD MD  1900   78 77  230/  4/  6 1020.9F
PINEY POINT MD   1900           20/  2/  2   N/A
POTOMAC MD       1900   71 68  170/  6/  8 1019.9F   0
CAMBRIDGE MD     1900   81 64  100/  3/  5 1019.4F
LEWISETTA VA     1900   74 68  120/  7/  8 1020.3F
RAPPAHANNOCK LGT 1900          190/  7/  7 1021.7F
STINGRAY PT      1900   72 68  160/  6/  8 1021.5F   0
YORK RVR RNG VA  1900   76     130/  8/  9 1020.5F
YORKTOWN VA      1900   77 66   80/  8/  8 1020.7F
JAMESTOWN VA     1900   81 69  150/  4/  6   N/A     0
DOMINION TERM VA 1900   84     280/  1/  2 1021.1F
KIPTOPEKE VA     1900      67  300/  2/  2   N/A
CHES BAY BRIDGE  1900   75 66   40/  7/  7 1021.1F
CAPE HENRY VA    1900   75      90/  6/  7   N/A
CHESAPEAKE LGHT  1900   74     120/  5/  5 1022.1F
WILLOUBY STN VA  1900   82     340/  2/  2 1022.1F
CAPE HENRY BUOY  1912      69                N/A     2/ 9
1ST LANDING BUOY 1900   73 71  100/  4/  6 1021.2F   1/ 4
CAPE CHARLES BUO 1926      68                N/A     1/ 9   2/ 9
OFFSHORE WE BUOY 1921      64                N/A     2/ 9   2/ 9
64NM E OF VA BCH 1950   65 61  200/  6/  6 1021.5F   2/ 9   2/ 9
DUCK PIER NC     1900   81 60  230/  9/ 11 1021.2F
44100 DUCK FRF   1924      65                N/A     2/ 8
44056 DUCK FRF   1911      64                N/A     2/ 8
OREGON INLET NC  1900   75 71  190/ 12/ 14 1022.1F
HATTERAS NC      1900   73 69  200/  7/ 11 1022.5F
DIAMOND SHLS NC  1950   73 72  220/  8/ 10 1022.8F   2/ 9   2/ 9
CAPE LOOKOUT NC1F1C2F2C3F3C4F4C5F5C6F6C7F7C8M1C9!



USA.gov is the U.S. government's official web portal to all federal, state and local government web resources and services.